NOAA 16 DEB, 41237

Orbit data source: Space-Track

NOAA 16 DEB, 41237 is space debris in SSO originally from a launch on Thu, 21 Sep 2000 UTC launched from the Air Force Western Test Range (AFWTR). Debris objects in space refer to the collection of defunct objects orbiting the Earth. Examples of debris include non-operational satellites, rocket bodies, and fragments generated from explosions, collisions, or faulty payload assembly.

Loading next visibility...
Identifier
41237, 2000-055ES
Orbit
SSO
Country
Flag of USUS
Related business
Manufacturer
Unknown
Mission
Spacecraft
Bus & Motor
Unknown
Mass
Unknown
Launch date (UTC)
2000-09-21 (26 years ago)
Launch vehicle
Unknown
Launch site
Air Force Western Test Range (AFWTR)
Object type
Payload
Rocket body
Debris
Shape & HBR
Unknown shape, 0.1 m
Radar Cross Section
Small (<0.1 m²)

Expand to show TLE details & history
Last TLE update: 1 day ago

TLE from 1 day ago
0 NOAA 16 DEB
1 41237U 00055ES  26119.13001734  .00005940  00000-0  13777-2 0  9990
2 41237  98.9957   3.4970 0034822 183.5115 176.5841 14.55062285543150
Epoch: 2026-04-29T03:07Z
TLE epoch observation values (Epoch: 2026-04-29T03:07:13.498Z)
Latitude
0.00003°
Longitude
99.59535°
Altitude
736.756 km
Speed
7.474 km/s
True Right ascension
00h 13m 59s
True Declination
0° 00' 00"
Sunlit
Object was in daylight at epoch
Visualization orbit readout
Latitude
Unknown
Longitude
Unknown
Altitude
Unknown
Speed
Unknown
Apparent Right ascension
Unknown
Apparent Declination
Unknown
Sunlit
N/A
Visualization observer readout
Local Sidereal Time
16:01:19
Azimuth
Unknown
Elevation
Unknown
Doppler factor
Unknown
Orbital elements
Apogee altitude
730.958 km
Perigee altitude
681.619 km
Semi-major axis
7,084.425 km
Eccentricity
0.00348
Inclination
98.9957°
RAAN
3.497°
Arg. of periapsis
183.5115°
True anomaly
176.60777°
Mean anomaly
176.5841°
Eccentric anomaly
176.59595°
Mean motion
3.63987 °/min
Orbital period
98.9 mins
BSTAR
0.0013777
Loading maneuver chart data...
Computing Atmospheric mass density...
Loading historical data...
Loading historical data...
Loading historical data...
Loading historical data...
Loading historical data...
Loading historical data...
Loading historical data...

Documentation

Showing up to 5 results
|